|
NORAD ID: 34150 Int'l Code: 1997-051ED
Perigee: 751.1 km
Apogee: 851.6 km
Inclination: 86.5 °
Period: 100.8 minutes
Semi major axis: 7172 km
Launch date: September 14, 1997
Source: United States (US)
Note: This is SATELLITE DEBRIS
Two Line Element Set (TLE):
1 34150U 97051ED 13143.21924672 .00007096 00000-0 27104-2 0 999
2 34150 086.4996 220.3204 0070065 151.7192 261.6956 14.29267582222045
Source:
NASA's NSSDC Master Catalog entry for IRIDIUM 33 DEB
|